Flag for Haiti Weather past 2 weeks in Cap-Haïtien, Haiti

Now
73 °F

Passing clouds.


Feels Like: 70 °F
Forecast: 78 / 88 °F
Wind: 5 mph from Southeast

Location: Santiago

Current Time: Jul 29, 2014 at 6:46:26 AM

Latest Report: Jul 29, 2014 at 6:00 AM


Visibility: N/A

Pressure: 30.01 "Hg

Humidity: 94%

Dew point: 72 °F

Location of Cap-HaïtienLocation

Historic Weather in Cap-Haïtien — Graph

°F

Cap-Haïtien temperature yesterday

Maximum temperature yesterday: 93 °F (at 2:00 PM)
Minimum temperature yesterday: 75 °F (at 5:00 AM)
Average temperature yesterday: 83 °F

Past Weeks' High & Low Weather Summary

 TemperatureHumidityPressure
High93 °F (Jul 17, 5:00 PM)100% (Jul 14, 6:00 AM)30.12 "Hg (Jul 14, 6:00 AM)
Low72 °F (Jul 14, 6:00 AM)41% (Jul 27, 3:00 PM)29.95 "Hg (Jul 14, 4:00 PM)
Average82 °F76%30.03 "Hg
* Reported Jul 14 6:00 AM — Jul 29 6:00 AM, Cap-Haïtien, Weather by CustomWeather, © 2014

Note: Actual official high and low records may vary slightly from our data, if they occured in-between our weather recording intervals... More about our weather records

Advertising

Cap-Haïtien weather history for previous 24 hours

 ConditionsComfort  
Time TempWeatherWind HumidityBarometerVisibility
6:00 AM
Jul 29
73 °FPassing clouds.5 mph94%30.01 "HgN/A
5:00 AM75 °FPassing clouds.8 mph89%30.01 "HgN/A
4:00 AM75 °FPassing clouds.6 mph89%29.98 "HgN/A
3:00 AM75 °FPassing clouds.5 mph89%30.01 "HgN/A
2:00 AM75 °FPassing clouds.6 mph89%30.01 "HgN/A
1:00 AM77 °FWarm.7 mph83%30.04 "HgN/A
12:00 AM79 °FPassing clouds.5 mph79%30.04 "HgN/A
11:00 PM
Jul 28
79 °FPassing clouds.6 mph79%30.07 "HgN/A
10:00 PM81 °FPassing clouds.8 mph74%30.04 "HgN/A
9:00 PM81 °FPassing clouds.12 mph74%30.04 "HgN/A
8:00 PM82 °FPassing clouds.15 mph70%30.01 "HgN/A
7:00 PM86 °FScattered clouds.13 mph62%29.98 "HgN/A
6:00 PM90 °FScattered clouds.18 mph55%29.98 "HgN/A
5:00 PM93 °FScattered clouds.12 mph47%29.95 "HgN/A
4:00 PM93 °FScattered clouds.14 mph44%29.95 "HgN/A
3:00 PM93 °FPassing clouds.12 mph44%29.98 "HgN/A
2:00 PM93 °FPassing clouds.12 mph47%30.01 "HgN/A
1:00 PM91 °FPassing clouds.15 mph46%30.04 "HgN/A
12:00 PM88 °FPassing clouds.12 mph52%30.04 "HgN/A
11:00 AM86 °FScattered clouds.12 mph62%30.07 "HgN/A
10:00 AM84 °FPassing clouds.10 mph66%30.09 "HgN/A
9:00 AM82 °FScattered clouds.10 mph74%30.09 "HgN/A
8:00 AM75 °FScattered clouds.9 mph100%30.07 "HgN/A
7:00 AM75 °FOvercast.6 mph100%30.07 "Hg3 mi
6:00 AM75 °FPassing clouds.6 mph100%30.04 "HgN/A
Weather by CustomWeather, © 2014

See weather overviewHow to use our weather pages